15 daagse weersverwachting Plymouth (GB)

  • Overzicht
  • Per uur
  • 15 dagen
  • Extra
  • Vergelijk
  • Kaarten
  • Dagkaart
  • Meer »
  • Info
  • Statistieken
  • Directe link
    Temp 6h Neerslag Wind  
 05:17     21:12    Daglengte: 15:55 Morgen
01:00
14°
 
2
07:00
15°
 
5
13:00
19°
 
7
19:00
21°
3.0 mm
7
 05:16     21:13    Daglengte: 15:57 Zondag 27 Mei
01:00
17°
6.1 mm
6
07:00
15°
 
4
13:00
18°
 
6
19:00
16°
 
4
 05:15     21:14    Daglengte: 15:59 Maandag 28 Mei
01:00
13°
 
1
07:00
13°
 
2
13:00
19°
 
2
19:00
19°
 
3
Locatie info
Region: England
Latitude: 50.3762°N
Longitude: -4.1366°E
14 masl
Postcode: PL4 8
Temp/Neerslag /Baro Onweer/Dauwpunt
    Temp Baro 1h Neerslag Dauwpunt Wind UV Bewolking  
 05:17     21:12    Daglengte: 15:55 Morgen
00:00
14°
1018.5 hPa
14%
11.9°
2
Windvlaag: 2.2 km/h
3%
01:00
14°
1018.2 hPa
14%
11.6°
2
Windvlaag: 1.1 km/h
3%
02:00
13°
1018.2 hPa
14%
11.1°
3
Windvlaag: -0.3 km/h
3%
03:00
13°
1017.9 hPa
14%
11.1°
3
Windvlaag: -1.3 km/h
3%
04:00
12°
1017.8 hPa
14%
11.0°
3
Windvlaag: -2 km/h
5%
05:00
13°
1017.6 hPa
14%
11.5°
4
Windvlaag: -2.1 km/h
10%
06:00
14°
1017.7 hPa
14%
11.8°
4
Windvlaag: -0.9 km/h
10%
07:00
15°
1017.7 hPa
14%
12.1°
5
Windvlaag: -1.1 km/h
40%
08:00
16°
1017.4 hPa
24%
12.4°
6
Windvlaag: -2 km/h
59%
09:00
17°
1017.4 hPa
17%
13.1°
6
Windvlaag: -1.8 km/h
49%
10:00
18°
1017.3 hPa
15%
12.2°
6
Windvlaag: -1.7 km/h
45%
11:00
18°
1017.0 hPa
22%
10.5°
6
Windvlaag: -1.5 km/h
40%
12:00
20°
1016.7 hPa
67%
11.9°
6
Windvlaag: -2.7 km/h
76%
13:00
19°
1016.2 hPa
26%
12.4°
7
Windvlaag: -5 km/h
76%
14:00
19°
1015.7 hPa
19%
13.5°
8
Windvlaag: -5.1 km/h
79%
15:00
19°
1014.9 hPa 0.9 mm
79%
14.9°
8
Windvlaag: -3.9 km/h
84% warningclass
16:00
19°
1014.3 hPa 1.3 mm
81%
13.7°
8
Windvlaag: -3.1 km/h
83% warningclass
17:00
19°
1013.5 hPa
82%
12.2°
7
Windvlaag: -4.7 km/h
64%
18:00
20°
1013.0 hPa
82%
12.3°
8
Windvlaag: -5.6 km/h
17%
19:00
21°
1012.5 hPa 0.7 mm
81%
13.3°
7
Windvlaag: -5.5 km/h
33%
20:00
20°
1012.2 hPa 1.3 mm
76%
14.0°
7
Windvlaag: -5.2 km/h
29% warningclass
21:00
19°
1012.4 hPa 1.4 mm
77%
15.0°
7
Windvlaag: -2.6 km/h
75% warningclass
22:00
18°
1012.6 hPa 1.4 mm
80%
14.3°
7
Windvlaag: 1.4 km/h
38%
23:00
18°
1012.7 hPa
79%
14.5°
7
Windvlaag: 0.9 km/h
58%
 05:16     21:13    Daglengte: 15:57 Zondag 27 Mei
00:00
17°
1012.8 hPa 2.0 mm
74%
14.7°
7
Windvlaag: 1.7 km/h
68%
01:00
17°
1012.4 hPa
34%
14.5°
6
Windvlaag: 1 km/h
43%
02:00
16°
1012.4 hPa
27%
14.5°
6
Windvlaag: 1 km/h
16%
03:00
16°
1012.3 hPa
26%
14.4°
5
Windvlaag: 3 km/h
38%
04:00
15°
1012.0 hPa
18%
14.4°
5
Windvlaag: 1.6 km/h
22%
05:00
15°
1011.8 hPa
14%
14.1°
4
Windvlaag: 1.1 km/h
44%
06:00
15°
1012.2 hPa
58%
14.1°
4
Windvlaag: 1.6 km/h
67%
07:00
15°
1012.6 hPa
32%
13.9°
4
Windvlaag: 1.8 km/h
86%
08:00
16°
1012.8 hPa
82%
13.8°
4
Windvlaag: 2.5 km/h
84%
09:00
16°
1012.9 hPa
80%
13.3°
4
Windvlaag: 4.3 km/h
85%
10:00
17°
1013.1 hPa
71%
13.0°
5
Windvlaag: 4.9 km/h
84%
11:00
18°
1013.1 hPa
71%
13.8°
5
Windvlaag: 5.4 km/h
79%
12:00
18°
1013.2 hPa
28%
14.7°
6
Windvlaag: 6.2 km/h
38%
13:00
18°
1013.2 hPa
26%
15.9°
6
Windvlaag: 7.1 km/h
4%
14:00
19°
1013.1 hPa
21%
16.4°
6
Windvlaag: 7.6 km/h
7%
15:00
18°
1013.1 hPa
16%
16.8°
6
Windvlaag: 7.6 km/h
18%
16:00
18°
1013.1 hPa
14%
16.6°
6
Windvlaag: 7.8 km/h
16%
17:00
17°
1013.0 hPa
14%
16.4°
5
Windvlaag: 7.6 km/h
32%
18:00
16°
1013.2 hPa
14%
15.5°
5
Windvlaag: 7.6 km/h
18%
19:00
16°
1013.6 hPa
15%
14.9°
4
Windvlaag: 6.8 km/h
17%
20:00
15°
1014.1 hPa
15%
14.5°
4
Windvlaag: 4.9 km/h
20%
21:00
15°
1014.5 hPa
17%
14.1°
3
Windvlaag: 4.6 km/h
22%
22:00
14°
1015.6 hPa
83%
14.3°
2
Windvlaag: 3.7 km/h
90%
23:00
14°
1015.9 hPa
41%
13.8°
2
Windvlaag: 3.2 km/h
89%
 05:15     21:14    Daglengte: 15:59 Maandag 28 Mei
00:00
13°
1016.5 hPa
80%
13.5°
2
Windvlaag: 2.1 km/h
88%
01:00
13°
1016.6 hPa
83%
13.2°
1
Windvlaag: 1.9 km/h
90%
02:00
13°
1016.5 hPa
27%
13.0°
1
Windvlaag: 1.1 km/h
95%
03:00
13°
1016.7 hPa
22%
12.9°
1
Windvlaag: -0.7 km/h
98%
04:00
13°
1016.5 hPa
21%
12.9°
1
Windvlaag: -2.5 km/h
89%
05:00
13°
1016.8 hPa
21%
12.7°
1
Windvlaag: -3.1 km/h
72%
06:00
13°
1017.2 hPa
21%
12.4°
2
Windvlaag: -2.8 km/h
66%
07:00
13°
1017.3 hPa
21%
12.5°
2
Windvlaag: -2.4 km/h
46%
08:00
14°
1017.7 hPa
21%
12.4°
1
Windvlaag: 2.6 km/h
84%
09:00
16°
1018.0 hPa
21%
11.9°
1
Windvlaag: 3.1 km/h
80%
10:00
17°
1018.3 hPa
24%
12.4°
2
Windvlaag: 4.2 km/h
41%
11:00
17°
1018.6 hPa
22%
12.6°
3
Windvlaag: 4.1 km/h
2%
12:00
18°
1018.7 hPa
24%
13.3°
2
Windvlaag: 4 km/h
1%
13:00
19°
1018.7 hPa
21%
13.6°
2
Windvlaag: 3.2 km/h
1%
14:00
19°
1018.5 hPa
21%
13.4°
2
Windvlaag: 2.5 km/h
1%
15:00
19°
1018.5 hPa
21%
12.7°
2
Windvlaag: 2.6 km/h
2%
16:00
20°
1018.3 hPa
21%
12.2°
2
Windvlaag: 2.6 km/h
2%
17:00
19°
1018.0 hPa
21%
13.4°
3
Windvlaag: 3.7 km/h
3%
18:00
19°
1017.8 hPa
21%
14.4°
3
Windvlaag: 5.1 km/h
2%
19:00
19°
1017.9 hPa
21%
15.5°
3
Windvlaag: 8 km/h
1%
20:00
19°
1018.2 hPa
21%
15.3°
3
Windvlaag: 8.7 km/h
7%
21:00
18°
1018.4 hPa
21%
14.5°
2
Windvlaag: 9.2 km/h
5%
22:00
17°
1018.6 hPa
21%
14.2°
2
Windvlaag: 12.3 km/h
1%
23:00
16°
1018.4 hPa
21%
14.2°
2
Windvlaag: 12.1 km/h
0%
Temp/Neerslag /Baro Onweer/Dauwpunt
    Temp Baro Neerslag Dauwpunt Wind Bewolking  
 05:17     21:12    Daglengte: 15:55 Morgen
01:00
14°
1018.2 hPa   11.6°
2
3%
04:00
12°
1017.8 hPa   11.0°
3
5%
07:00
15°
1017.7 hPa   12.1°
5
40%
10:00
18°
1017.3 hPa   12.2°
6
45%
13:00
19°
1016.2 hPa   12.4°
7
76%
16:00
19°
1014.3 hPa 2.2 mm 13.7°
8
83% warningclass
19:00
21°
1012.5 hPa 0.7 mm 13.3°
7
33%
22:00
18°
1012.6 hPa 4.1 mm 14.3°
7
38%
 05:16     21:13    Daglengte: 15:57 Zondag 27 Mei
01:00
17°
1012.4 hPa 2.0 mm 14.5°
6
43%
04:00
15°
1012.0 hPa   14.4°
5
22%
07:00
15°
1012.6 hPa   13.9°
4
86%
10:00
17°
1013.1 hPa   13.0°
5
84%
13:00
18°
1013.2 hPa   15.9°
6
4%
16:00
18°
1013.1 hPa   16.6°
6
16%
19:00
16°
1013.6 hPa   14.9°
4
17%
22:00
14°
1015.6 hPa   14.3°
2
90%
 05:15     21:14    Daglengte: 15:59 Maandag 28 Mei
01:00
13°
1016.6 hPa   13.2°
1
90%
04:00
13°
1016.5 hPa   12.9°
1
89%
07:00
13°
1017.3 hPa   12.5°
2
46%
10:00
17°
1018.3 hPa   12.4°
2
41%
13:00
19°
1018.7 hPa   13.6°
2
1%
16:00
20°
1018.3 hPa   12.2°
2
2%
19:00
19°
1017.9 hPa   15.5°
3
1%
22:00
17°
1018.6 hPa   14.2°
2
1%
 05:14     21:15    Daglengte: 16:01 Dinsdag 29 Mei
01:00
15°
1017.9 hPa   13.1°
2
10%
04:00
16°
1016.5 hPa 0.4 mm 15.0°
5
1%
07:00
17°
1015.9 hPa 3.1 mm 15.7°
5
1%
10:00
17°
1015.6 hPa 0.4 mm 15.1°
4
1%
13:00
16°
1014.7 hPa 2.1 mm 15.2°
5
1%
16:00
17°
1013.3 hPa 1.3 mm 16.1°
3
1%
19:00
18°
1012.1 hPa 1.7 mm 16.5°
3
1%
22:00
16°
1012.0 hPa 1.7 mm 15.3°
2
0%
 05:13     21:16    Daglengte: 16:03 Woensdag 30 Mei
01:00
16°
1010.9 hPa 2.7 mm 15.7°
3
1%
04:00
16°
1010.0 hPa 0.1 mm 15.5°
5
1%
07:00
16°
1009.6 hPa 0.3 mm 14.7°
6
1%
10:00
17°
1010.4 hPa 0.1 mm 14.2°
6
1%
13:00
18°
1010.6 hPa 0.2 mm 14.6°
6
1%
16:00
18°
1010.1 hPa   14.6°
5
1%
19:00
17°
1010.1 hPa   14.6°
3
1%
22:00
14°
1011.4 hPa   13.8°
3
1%
 05:12     21:17    Daglengte: 16:05 Donderdag 31 Mei
01:00
14°
1011.6 hPa   13.0°
2
1%
04:00
15°
1011.4 hPa   13.7°
2
0%
07:00
15°
1012.6 hPa 0.2 mm 14.2°
3
1%
10:00
17°
1013.9 hPa   14.8°
2
1%
13:00
17°
1014.9 hPa 0.2 mm 15.4°
3
1%
16:00
18°
1015.5 hPa   15.1°
3
1%
19:00
17°
1016.4 hPa 0.1 mm 14.8°
4
1%
22:00
14°
1018.1 hPa   14.0°
3
0%
 05:12     21:18    Daglengte: 16:06 Vrijdag 01 Jun
01:00
14°
1018.7 hPa   13.7°
3
0%
04:00
14°
1019.1 hPa   13.2°
3
1%
07:00
14°
1019.7 hPa   12.8°
2
1%
10:00
16°
1021.0 hPa   12.8°
2
1%
13:00
17°
1021.5 hPa   13.6°
3
1%
16:00
17°
1021.2 hPa   14.2°
4
1%
19:00
16°
1021.1 hPa 0.2 mm 14.4°
4
1%
22:00
14°
1021.3 hPa   13.2°
3
1%
 05:11     21:19    Daglengte: 16:08 Zaterdag 02 Jun
01:00
13°
1020.9 hPa   11.7°
3
1%
07:00
14°
1019.6 hPa   12.5°
2
1%
13:00
18°
1020.0 hPa 0.1 mm 14.4°
3
1%
19:00
18°
1018.5 hPa 0.4 mm 15.3°
4
1%
 05:10     21:20    Daglengte: 16:10 Zondag 03 Jun
01:00
16°
1017.8 hPa 0.4 mm 15.0°
4
1%
07:00
13°
1016.4 hPa 0.8 mm 11.4°
7
1%
13:00
14°
1016.1 hPa   11.4°
7
1%
19:00
15°
1013.5 hPa 0.5 mm 12.6°
6
1%
 05:10     21:21    Daglengte: 16:11 Maandag 04 Jun
01:00
12°
1013.4 hPa 10.2 mm 10.7°
9
1%
07:00
11°
1015.2 hPa 4.3 mm 9.6°
9
1%
13:00
14°
1017.3 hPa 0.1 mm 11.0°
7
1%
19:00
16°
1012.6 hPa 0.3 mm 11.6°
0
30%
 05:09     21:22    Daglengte: 16:13 Dinsdag 05 Jun
01:00
14°
1012.9 hPa 0.6 mm 11.5°
0
34%
07:00
14°
1012.6 hPa 0.3 mm 11.0°
0
44%
13:00
16°
1013.4 hPa 0.6 mm 11.8°
1
40%
19:00
16°
1013.1 hPa 1.4 mm 12.0°
2
38%
 05:09     21:23    Daglengte: 16:14 Woensdag 06 Jun
01:00
14°
1013.4 hPa 1.2 mm 11.5°
1
43%
07:00
14°
1013.0 hPa 1.1 mm 11.2°
1
51%
13:00
16°
1014.3 hPa 0.1 mm 11.3°
1
37%
19:00
16°
1014.1 hPa 0.2 mm 11.7°
2
41%
 05:08     21:24    Daglengte: 16:16 Donderdag 07 Jun
01:00
14°
1014.6 hPa 0.7 mm 11.7°
0
48%
07:00
13°
1014.8 hPa 0.8 mm 11.4°
1
54%
13:00
16°
1016.2 hPa 0.4 mm 11.4°
0
52%
19:00
16°
1015.9 hPa 0.3 mm 11.5°
1
28%
 05:08     21:25    Daglengte: 16:17 Vrijdag 08 Jun
01:00
14°
1016.2 hPa 0.2 mm 11.3°
1
27%
07:00
14°
1015.7 hPa 0.2 mm 11.5°
1
36%
13:00
17°
1016.3 hPa 0.4 mm 11.8°
1
38%
19:00
17°
1015.4 hPa 0.5 mm 11.9°
1
39%
 05:07     21:25    Daglengte: 16:18 Zaterdag 09 Jun
01:00
14°
1015.5 hPa 0.7 mm 11.9°
1
37%
07:00
14°
1014.7 hPa 1.2 mm 11.8°
1
49%
13:00
17°
1015.2 hPa 1.1 mm 11.5°
1
47%
19:00
17°
1014.3 hPa 0.8 mm 11.8°
2
35%
  CAPE Lifted Index Hail Supercell Tornado SRH 3km CL BTM PRES CL TOP PRES Swiss DWD icon SMHI TS
 05:17     21:12    Daglengte: 15:55 Morgen
00:00 0 J/kg 0.7 K 0 % 0 % 0 % 0 m²/s² 0 0 6.58 1
01:00 0 J/kg 1.0 K 0 % 0 % 0 % 0 m²/s² 0 0 7.03 0
02:00 0 J/kg 0.2 K 0 % 0 % 0 % 0 m²/s² 0 0 5.06 0
03:00 0 J/kg -0.1 K 0 % 0 % 0 % 0 m²/s² 0 0 4.64 1
04:00 0 J/kg 0.3 K 0 % 0 % 0 % 0 m²/s² 0 0 5.04 1
05:00 0 J/kg 1.1 K 0 % 0 % 0 % 0 m²/s² 0 0 6.08 1
06:00 0 J/kg 1.5 K 0 % 0 % 0 % 0 m²/s² 0 0 6.6 2
07:00 0 J/kg 1.4 K 0 % 0 % 0 % 0 m²/s² 0 0 6.95 3
08:00 0 J/kg 0.8 K 0 % 0 % 0 % 0 m²/s² 0 0 5.78 3
09:00 13 J/kg 0.6 K 0 % 0 % 0 % 0 m²/s² 0 0 5.01 2
10:00 9 J/kg 0.5 K 0 % 0 % 0 % 0 m²/s² 0 0 4.37 3
11:00 44 J/kg 0.0 K 0 % 0 % 0 % 0 m²/s² 0 0 2.67 3
12:00 93 J/kg -0.3 K 0 % 0 % 0 % 0 m²/s² 0 0 1.62 3
13:00 263 J/kg -1.4 K 0 % 0 % 0 % 0 m²/s² 0 0 -0.41 3
14:00 390 J/kg -1.7 K 0 % 0 % 0 % 0 m²/s² 0 0 -1.4 3
15:00 547 J/kg -2.2 K 0 % 0 % 0 % 0 m²/s² 0 0 -2.11 80
16:00 631 J/kg -2.5 K 0 % 0 % 0 % 0 m²/s² 0 0 -1.84 95
17:00 691 J/kg -2.9 K 0 % 0 % 0 % 0 m²/s² 0 0 -1.43 80
18:00 697 J/kg -3.1 K 0 % 0 % 0 % 0 m²/s² 0 0 -1.21 80
19:00 732 J/kg -3.7 K 0 % 0 % 0 % 0 m²/s² 0 0 -1.87 2
20:00 601 J/kg -4.9 K 0 % 0 % 0 % 0 m²/s² 0 0 -3.31 80
21:00 759 J/kg -4.8 K 0 % 0 % 0 % 0 m²/s² 0 0 -2.73 80
22:00 614 J/kg -4.7 K 0 % 0 % 0 % 0 m²/s² 0 0 -1.67 80
23:00 731 J/kg -3.9 K 0 % 0 % 0 % 0 m²/s² 0 0 -0.24 80
 05:16     21:13    Daglengte: 15:57 Zondag 27 Mei
00:00 311 J/kg -3.2 K 0 % 0 % 0 % 0 m²/s² 0 0 -0.98 3
01:00 0 J/kg -0.7 K 0 % 0 % 0 % 0 m²/s² 0 0 -0.28 3
02:00 0 J/kg 1.0 K 0 % 0 % 0 % 0 m²/s² 0 0 1.39 2
03:00 0 J/kg 0.2 K 0 % 0 % 0 % 0 m²/s² 0 0 3.17 3
04:00 1 J/kg 0.5 K 0 % 0 % 0 % 0 m²/s² 0 0 3.98 1
05:00 1 J/kg 2.0 K 0 % 0 % 0 % 0 m²/s² 0 0 5.03 3
06:00 2 J/kg 1.9 K 0 % 0 % 0 % 0 m²/s² 0 0 4.69 3
07:00 1 J/kg 1.5 K 0 % 0 % 0 % 0 m²/s² 0 0 3.51 3
08:00 1 J/kg 1.3 K 0 % 0 % 0 % 0 m²/s² 0 0 2.59 61
09:00 1 J/kg 1.5 K 0 % 0 % 0 % 0 m²/s² 0 0 4.77 3
10:00 3 J/kg 1.0 K 0 % 0 % 0 % 0 m²/s² 0 0 4.27 3
11:00 39 J/kg 1.1 K 0 % 0 % 0 % 0 m²/s² 0 0 4.64 3
12:00 33 J/kg 1.6 K 0 % 0 % 0 % 0 m²/s² 0 0 4.78 3
13:00 46 J/kg 1.8 K 0 % 0 % 0 % 0 m²/s² 0 0 4.83 2
14:00 27 J/kg 1.5 K 0 % 0 % 0 % 0 m²/s² 0 0 4.35 1
15:00 46 J/kg 0.5 K 0 % 0 % 0 % 0 m²/s² 0 0 2.84 1
16:00 52 J/kg 0.9 K 0 % 0 % 0 % 0 m²/s² 0 0 2.19 0
17:00 4 J/kg 1.9 K 0 % 0 % 0 % 0 m²/s² 0 0 4.69 2
18:00 2 J/kg 2.2 K 0 % 0 % 0 % 0 m²/s² 0 0 3.7 2
19:00 3 J/kg 2.7 K 0 % 0 % 0 % 0 m²/s² 0 0 5.1 1
20:00 3 J/kg 2.8 K 0 % 0 % 0 % 0 m²/s² 0 0 7.18 1
21:00 3 J/kg 3.3 K 0 % 0 % 0 % 0 m²/s² 0 0 7.44 2
22:00 2 J/kg 4.2 K 0 % 0 % 0 % 0 m²/s² 0 0 8.46 2
23:00 2 J/kg 4.6 K 0 % 0 % 0 % 0 m²/s² 0 0 8.98 2
 05:15     21:14    Daglengte: 15:59 Maandag 28 Mei
00:00 2 J/kg 5.0 K 0 % 0 % 0 % 0 m²/s² 0 0 9.71 3
01:00 2 J/kg 5.2 K 0 % 0 % 0 % 0 m²/s² 0 0 10.3 3
02:00 2 J/kg 5.2 K 0 % 0 % 0 % 0 m²/s² 0 0 10.45 45
03:00 2 J/kg 4.5 K 0 % 0 % 0 % 0 m²/s² 0 0 9.6 45
04:00 2 J/kg 4.1 K 0 % 0 % 0 % 0 m²/s² 0 0 9.5 3
05:00 2 J/kg 3.9 K 0 % 0 % 0 % 0 m²/s² 0 0 9.75 3
06:00 2 J/kg 2.8 K 0 % 0 % 0 % 0 m²/s² 0 0 9.55 3
07:00 1 J/kg 2.4 K 0 % 0 % 0 % 0 m²/s² 0 0 9.63 45
08:00 0 J/kg 2.3 K 0 % 0 % 0 % 0 m²/s² 0 0 8.9 3
09:00 0 J/kg 2.2 K 0 % 0 % 0 % 0 m²/s² 0 0 7.33 3
10:00 1 J/kg 1.8 K 0 % 0 % 0 % 0 m²/s² 0 0 5.76 3
11:00 27 J/kg 0.5 K 0 % 0 % 0 % 0 m²/s² 0 0 4.58 2
12:00 130 J/kg -0.5 K 0 % 0 % 0 % 0 m²/s² 0 0 3.82 1
13:00 252 J/kg -1.0 K 0 % 0 % 0 % 0 m²/s² 0 0 3.29 1
14:00 343 J/kg -1.0 K 0 % 0 % 0 % 0 m²/s² 0 0 3.53 1
15:00 528 J/kg -1.4 K 0 % 0 % 0 % 0 m²/s² 0 0 3.25 0
16:00 579 J/kg -1.3 K 0 % 0 % 0 % 0 m²/s² 0 0 3.23 0
17:00 950 J/kg -2.6 K 0 % 0 % 0 % 0 m²/s² 0 0 2.44 0
18:00 1048 J/kg -2.8 K 0 % 0 % 0 % 0 m²/s² 0 0 2.24 0
19:00 688 J/kg -2.4 K 0 % 0 % 0 % 0 m²/s² 0 0 2.79 0
20:00 100 J/kg -1.5 K 0 % 0 % 0 % 0 m²/s² 0 0 3.18 0
21:00 0 J/kg -1.5 K 0 % 0 % 0 % 0 m²/s² 0 0 2.94 0
22:00 0 J/kg -1.6 K 0 % 0 % 0 % 0 m²/s² 0 0 1.91 0
23:00 29 J/kg -1.0 K 0 % 0 % 0 % 0 m²/s² 0 0 2.06 0
Temp Baro Wind Neerslag
  EWN Forecast EWN WRFDA DWD ICON FMI HIRLAM MET Norway GFS
 05:17     21:12    Daglengte: 15:55 Morgen
01:00 13.6° 1018.2 hPa 2.0 m/s 0.0 mm 11.2° 1017.6 hPa 3.0 m/s 4.5 mm 13.0° 1018.2 hPa 0.9 m/s -2.0 mm 14.5° 1018.3 hPa 2.7 m/s 0.0 mm 12.2° 1018.7 hPa 2.6 m/s
04:00 12.5° 1017.8 hPa 3.3 m/s 0.0 mm 10.4° 1017.2 hPa 3.1 m/s 6.8 mm 11.9° 1017.9 hPa 1.3 m/s 0.0 mm 13.7° 1017.5 hPa 4.1 m/s 0.0 mm 11.7° 1018.2 hPa 3.7 m/s
07:00 14.7° 1017.7 hPa 4.7 m/s 0.0 mm 14.5° 1017.6 hPa 4.3 m/s 6.8 mm 14.5° 1017.9 hPa 2.1 m/s 0.0 mm 15.7° 1017.1 hPa 5.0 m/s 0.0 mm 13.3° 1018.7 hPa 5.2 m/s
10:00 17.7° 1017.3 hPa 6.3 m/s 0.0 mm 17.9° 1017.4 hPa 5.4 m/s 6.8 mm 17.7° 1017.5 hPa 5.7 m/s 0.0 mm 17.9° 1015.8 hPa 6.5 m/s 0.0 mm 16.7° 1018.5 hPa 5.8 m/s
13:00 19.0° 1016.2 hPa 6.8 m/s 0.0 mm 21.3° 1016.3 hPa 5.3 m/s 6.8 mm 16.9° 1017.0 hPa 5.5 m/s 0.0 mm 21.3° 1014.2 hPa 8.8 m/s 0.0 mm 17.7° 1017.6 hPa 6.2 m/s
16:00 19.4° 1014.3 hPa 7.7 m/s 2.2 mm 21.4° 1015.0 hPa 5.8 m/s 7.0 mm 18.2° 1015.5 hPa 5.0 m/s 1.9 mm 23.6° 1012.0 hPa 9.9 m/s 0.0 mm 19.8° 1015.7 hPa 7.1 m/s
19:00 20.7° 1012.5 hPa 7.4 m/s 0.7 mm 22.6° 1013.1 hPa 4.7 m/s 8.5 mm 19.5° 1014.4 hPa 0.6 m/s 2.9 mm 22.3° 1011.4 hPa 10.9 m/s 0.0 mm 20.0° 1013.7 hPa 7.8 m/s
22:00 18.0° 1012.6 hPa 7.1 m/s 4.1 mm 19.9° 1011.8 hPa 7.3 m/s 12.0 mm 17.2° 1014.0 hPa 5.3 m/s 2.1 mm 17.9° 1011.5 hPa 7.1 m/s 0.0 mm 17.2° 1013.2 hPa 9.8 m/s
 05:16     21:13    Daglengte: 15:57 Zondag 27 Mei
01:00 16.7° 1012.4 hPa 6.3 m/s 2.0 mm 16.5° 1010.9 hPa 2.4 m/s 17.0 mm 16.9° 1012.7 hPa 6.8 m/s 0.6 mm 16.8° 1011.5 hPa 5.3 m/s 0.0 mm 15.4° 1012.7 hPa 8.8 m/s
04:00 15.5° 1012.0 hPa 4.9 m/s 0.0 mm 15.2° 1011.7 hPa 5.1 m/s 22.8 mm 15.6° 1012.1 hPa 5.5 m/s 0.0 mm 15.3° 1011.0 hPa 4.8 m/s 0.0 mm 14.9° 1012.0 hPa 6.4 m/s
07:00 15.2° 1012.6 hPa 3.9 m/s 0.0 mm 13.6° 1012.1 hPa 4.3 m/s 23.0 mm 16.1° 1012.6 hPa 3.4 m/s 0.0 mm 15.2° 1011.5 hPa 5.0 m/s 0.0 mm 14.8° 1012.4 hPa 4.8 m/s
10:00 16.9° 1013.1 hPa 4.7 m/s 0.0 mm 15.8° 1012.9 hPa 6.0 m/s 23.7 mm 16.8° 1013.2 hPa 3.0 m/s 0.1 mm 18.4° 1011.9 hPa 5.7 m/s 0.0 mm 15.7° 1013.1 hPa 4.1 m/s
13:00 18.3° 1013.2 hPa 5.8 m/s 0.0 mm 18.1° 1013.8 hPa 6.4 m/s 24.8 mm 18.7° 1013.1 hPa 4.5 m/s 0.0 mm 16.0° 1012.2 hPa 6.9 m/s 0.0 mm 16.2° 1013.7 hPa 4.5 m/s
16:00 17.9° 1013.1 hPa 6.1 m/s 0.0 mm 17.2° 1013.7 hPa 6.0 m/s 25.3 mm 19.1° 1013.0 hPa 4.0 m/s 0.0 mm 14.4° 1012.0 hPa 6.4 m/s 0.0 mm 17.5° 1013.5 hPa 5.4 m/s
19:00 15.7° 1013.6 hPa 4.1 m/s 0.0 mm 15.1° 1014.0 hPa 3.6 m/s 25.7 mm 18.1° 1013.5 hPa 4.0 m/s 0.0 mm 14.0° 1012.0 hPa 5.2 m/s 0.0 mm 16.1° 1013.9 hPa 4.5 m/s
22:00 14.3° 1015.6 hPa 2.0 m/s 0.0 mm 13.0° 1015.5 hPa 1.1 m/s 25.7 mm 15.9° 1015.0 hPa 2.1 m/s 0.0 mm 14.1° 1015.9 hPa 2.2 m/s
 05:15     21:14    Daglengte: 15:59 Maandag 28 Mei
01:00 13.2° 1016.6 hPa 1.4 m/s 0.0 mm 12.3° 1016.5 hPa 1.7 m/s 25.7 mm 14.5° 1015.9 hPa 1.5 m/s 0.0 mm 13.4° 1016.7 hPa 1.3 m/s
04:00 12.9° 1016.5 hPa 1.0 m/s 0.0 mm 11.8° 1016.3 hPa 0.3 m/s 25.8 mm 14.1° 1016.2 hPa 0.9 m/s 0.0 mm 12.7° 1017.2 hPa 0.9 m/s
07:00 13.3° 1017.3 hPa 1.7 m/s 0.0 mm 12.6° 1016.9 hPa 1.8 m/s 25.9 mm 14.1° 1017.2 hPa 0.6 m/s 0.0 mm 13.6° 1018.2 hPa 0.8 m/s
10:00 17.2° 1018.3 hPa 2.3 m/s 0.0 mm 19.3° 1017.3 hPa 1.1 m/s 25.9 mm 16.7° 1018.5 hPa 2.5 m/s 0.0 mm 16.7° 1018.9 hPa 0.8 m/s
13:00 18.7° 1018.7 hPa 2.2 m/s 0.0 mm 21.8° 1017.1 hPa 1.9 m/s 25.9 mm 17.9° 1019.1 hPa 2.2 m/s 0.0 mm 18.8° 1019.6 hPa 1.6 m/s
16:00 19.5° 1018.3 hPa 2.3 m/s 0.0 mm 24.2° 1016.1 hPa 1.1 m/s 25.9 mm 18.4° 1018.8 hPa 2.6 m/s 0.0 mm 19.2° 1019.3 hPa 2.7 m/s
19:00 19.4° 1017.9 hPa 2.6 m/s 0.0 mm 22.0° 1015.0 hPa 6.1 m/s 26.0 mm 18.7° 1018.6 hPa 1.7 m/s 0.0 mm 19.2° 1018.3 hPa 4.3 m/s
22:00 16.7° 1018.6 hPa 2.2 m/s 0.0 mm 17.7° 1016.1 hPa 6.0 m/s 26.0 mm 16.5° 1019.2 hPa 1.3 m/s 0.0 mm 15.2° 1019.1 hPa 5.0 m/s
 05:14     21:15    Daglengte: 16:01 Dinsdag 29 Mei
01:00 15.5° 1017.9 hPa 1.9 m/s 0.0 mm 17.9° 1015.1 hPa 4.3 m/s 26.0 mm 14.9° 1018.7 hPa 1.3 m/s 0.0 mm 15.2° 1017.9 hPa 4.8 m/s
04:00 15.5° 1016.5 hPa 4.8 m/s 0.4 mm 15.5° 1016.5 hPa 4.8 m/s 0.4 mm
07:00 16.5° 1015.9 hPa 5.2 m/s 3.1 mm 16.5° 1015.9 hPa 5.2 m/s 3.1 mm
10:00 16.8° 1015.6 hPa 4.4 m/s 0.4 mm 16.8° 1015.6 hPa 4.4 m/s 0.4 mm
13:00 16.4° 1014.7 hPa 4.8 m/s 2.1 mm 16.4° 1014.7 hPa 4.8 m/s 2.1 mm
16:00 17.1° 1013.3 hPa 3.4 m/s 1.3 mm 17.1° 1013.3 hPa 3.4 m/s 1.3 mm
19:00 18.1° 1012.1 hPa 3.3 m/s 1.7 mm 18.1° 1012.1 hPa 3.3 m/s 1.7 mm
22:00 16.0° 1012.0 hPa 2.0 m/s 1.7 mm 16.0° 1012.0 hPa 2.0 m/s 1.7 mm
 05:13     21:16    Daglengte: 16:03 Woensdag 30 Mei
01:00 16.1° 1010.9 hPa 3.4 m/s 2.7 mm 16.1° 1010.9 hPa 3.4 m/s 2.7 mm
04:00 16.0° 1010.0 hPa 4.8 m/s 0.1 mm 16.0° 1010.0 hPa 4.8 m/s 0.1 mm
07:00 15.5° 1009.6 hPa 5.6 m/s 0.3 mm 15.5° 1009.6 hPa 5.6 m/s 0.3 mm
10:00 16.6° 1010.4 hPa 6.5 m/s 0.1 mm 16.6° 1010.4 hPa 6.5 m/s 0.1 mm
13:00 17.7° 1010.6 hPa 6.2 m/s 0.2 mm 17.7° 1010.6 hPa 6.2 m/s 0.2 mm
16:00 17.7° 1010.1 hPa 4.7 m/s 0.0 mm 17.7° 1010.1 hPa 4.7 m/s 0.0 mm
19:00 16.9° 1010.1 hPa 3.4 m/s 0.0 mm 16.9° 1010.2 hPa 3.4 m/s 0.0 mm
22:00 14.3° 1011.4 hPa 2.7 m/s 0.0 mm 14.3° 1011.4 hPa 2.7 m/s 0.0 mm
 05:12     21:17    Daglengte: 16:05 Donderdag 31 Mei
01:00 13.6° 1011.6 hPa 1.9 m/s 0.0 mm 13.6° 1011.7 hPa 1.9 m/s 0.0 mm
04:00 14.5° 1011.4 hPa 2.0 m/s 0.0 mm 14.5° 1011.4 hPa 2.0 m/s 0.0 mm
07:00 15.2° 1012.6 hPa 2.5 m/s 0.2 mm 15.2° 1012.6 hPa 2.5 m/s 0.2 mm
10:00 17.0° 1013.9 hPa 2.4 m/s 0.0 mm 17.0° 1013.9 hPa 2.4 m/s 0.0 mm
13:00 16.9° 1014.9 hPa 2.9 m/s 0.2 mm 16.9° 1014.9 hPa 2.9 m/s 0.2 mm
16:00 17.8° 1015.5 hPa 3.4 m/s 0.0 mm 17.8° 1015.5 hPa 3.4 m/s 0.1 mm
19:00 16.8° 1016.4 hPa 3.6 m/s 0.1 mm 16.8° 1016.4 hPa 3.6 m/s 0.1 mm
22:00 14.3° 1018.1 hPa 2.9 m/s 0.0 mm 14.3° 1018.1 hPa 2.9 m/s 0.0 mm
 05:12     21:18    Daglengte: 16:06 Vrijdag 01 Jun
01:00 14.1° 1018.7 hPa 2.6 m/s 0.0 mm 14.1° 1018.7 hPa 2.6 m/s 0.0 mm
04:00 13.7° 1019.1 hPa 2.5 m/s 0.0 mm 13.7° 1019.1 hPa 2.5 m/s 0.0 mm
07:00 14.0° 1019.7 hPa 1.9 m/s 0.0 mm 14.0° 1019.7 hPa 1.9 m/s 0.0 mm
10:00 15.9° 1021.0 hPa 2.2 m/s 0.0 mm 15.9° 1021.0 hPa 2.2 m/s 0.0 mm
13:00 17.0° 1021.5 hPa 3.4 m/s 0.0 mm 17.0° 1021.5 hPa 3.4 m/s 0.1 mm
16:00 17.1° 1021.2 hPa 4.1 m/s 0.0 mm 17.1° 1021.2 hPa 4.1 m/s 0.1 mm
19:00 16.2° 1021.1 hPa 3.8 m/s 0.2 mm 16.2° 1021.1 hPa 3.8 m/s 0.2 mm
22:00 13.8° 1021.3 hPa 3.4 m/s 0.0 mm 13.8° 1021.3 hPa 3.4 m/s 0.0 mm
 05:11     21:19    Daglengte: 16:08 Zaterdag 02 Jun
01:00 12.5° 1020.9 hPa 2.9 m/s 0.0 mm 12.5° 1020.9 hPa 2.9 m/s 0.0 mm
07:00 13.7° 1019.6 hPa 2.4 m/s 0.0 mm 13.7° 1019.6 hPa 2.4 m/s 0.0 mm
13:00 17.5° 1020.0 hPa 2.6 m/s 0.1 mm 17.5° 1020.0 hPa 2.6 m/s 0.1 mm
19:00 17.6° 1018.5 hPa 4.4 m/s 0.2 mm 17.6° 1018.5 hPa 4.4 m/s 0.2 mm
 05:10     21:20    Daglengte: 16:10 Zondag 03 Jun
01:00 15.7° 1017.8 hPa 4.1 m/s 0.3 mm 15.7° 1017.8 hPa 4.1 m/s 0.3 mm
07:00 12.7° 1016.4 hPa 6.6 m/s 0.4 mm 12.7° 1016.4 hPa 6.6 m/s 0.4 mm
13:00 14.4° 1016.1 hPa 7.3 m/s 0.0 mm 14.4° 1016.1 hPa 7.3 m/s 0.1 mm
19:00 14.6° 1013.5 hPa 6.2 m/s 0.4 mm 14.6° 1013.5 hPa 6.2 m/s 0.4 mm
 05:10     21:21    Daglengte: 16:11 Maandag 04 Jun
01:00 11.8° 1013.4 hPa 9.3 m/s 7.7 mm 11.8° 1013.4 hPa 9.3 m/s 7.7 mm
07:00 10.7° 1015.2 hPa 8.6 m/s 2.1 mm 10.7° 1015.2 hPa 8.6 m/s 2.1 mm
13:00 14.3° 1017.3 hPa 6.6 m/s 0.1 mm 14.3° 1017.3 hPa 6.6 m/s 0.1 mm
19:00 16.1° 1012.6 hPa 0.4 m/s 0.3 mm
 05:09     21:22    Daglengte: 16:13 Dinsdag 05 Jun
01:00 13.6° 1012.9 hPa 0.4 m/s 0.6 mm
07:00 13.5° 1012.6 hPa 0.2 m/s 0.3 mm
13:00 15.9° 1013.4 hPa 1.5 m/s 0.6 mm
19:00 16.0° 1013.1 hPa 2.2 m/s 1.4 mm
 05:09     21:23    Daglengte: 16:14 Woensdag 06 Jun
01:00 13.6° 1013.4 hPa 0.5 m/s 1.2 mm
07:00 13.5° 1013.0 hPa 1.0 m/s 1.1 mm
13:00 16.1° 1014.3 hPa 1.1 m/s 0.1 mm
19:00 16.1° 1014.1 hPa 1.6 m/s 0.2 mm
 05:08     21:24    Daglengte: 16:16 Donderdag 07 Jun
01:00 13.8° 1014.6 hPa 0.4 m/s 0.7 mm
07:00 13.3° 1014.8 hPa 1.1 m/s 0.8 mm
13:00 15.9° 1016.2 hPa 0.3 m/s 0.4 mm
19:00 16.2° 1015.9 hPa 1.1 m/s 0.3 mm
 05:08     21:25    Daglengte: 16:17 Vrijdag 08 Jun
01:00 14.0° 1016.2 hPa 0.8 m/s 0.2 mm
07:00 14.0° 1015.7 hPa 1.2 m/s 0.2 mm
13:00 16.6° 1016.3 hPa 1.5 m/s 0.4 mm
19:00 16.5° 1015.4 hPa 0.7 m/s 0.5 mm
 05:07     21:25    Daglengte: 16:18 Zaterdag 09 Jun
01:00 14.2° 1015.5 hPa 1.0 m/s 0.7 mm
07:00 14.1° 1014.7 hPa 1.4 m/s 1.2 mm
13:00 16.5° 1015.2 hPa 1.1 m/s 1.1 mm
19:00 16.6° 1014.3 hPa 1.5 m/s 0.8 mm
FMI Hirlam - 7.5 km EWN WRFDA - 12 km DWD ICON - 7 km GFS - 25 km Basiskaart






























































Updatetijd (Europe/Amsterdam) Resolutie Lengte Stap
FMI Hirlam 19:00, 01:00, 07:00, 13:00 7.5 km 49h 1h
EWN WRFDA 22:00, 04:00, 10:00, 16:00 12 km 73h 1h
DWD ICON 19:00, 01:00, 07:00, 13:00 7 km 75h 1h
GFS 22:15, 04:15, 10:15, 16:15 25 km 237h 3h
30+ mm
25-30 mm
20-25 mm
15-20 mm
10-15 mm
6-10 mm
4-6 mm
2-4 mm
1-2 mm
0.5-1 mm
0.2-0.5 mm
0.1-0.2 mm
30+ mm
25-30 mm
20-25 mm
15-20 mm
10-15 mm
6-10 mm
4-6 mm
2-4 mm
1-2 mm
0.5-1 mm
0.2-0.5 mm
0.1-0.2 mm
Sneeuwval
Natte sneeuw
Hagel
Vorst
30+ mm
25-30 mm
20-25 mm
15-20 mm
10-15 mm
6-10 mm
4-6 mm
2-4 mm
1-2 mm
0.5-1 mm
0.2-0.5 mm
0.1-0.2 mm
Sneeuwval
Natte sneeuw
Hagel
Vorst
Onweer
50 mm
40 mm
30 mm
26 mm
22 mm
18 mm
14 mm
10 mm
9 mm
8 mm
7 mm
6 mm
5 mm
4.5 mm
4 mm
3.5 mm
3 mm
2.5 mm
2 mm
1.5 mm
1 mm
0.8 mm
0.6 mm
0.4 mm
0.2 mm
0.05 mm
35°
30°
25°
20°
15°
10°
-5°
-10°
-15°
-20°
-25°
-30°
-35°
120> km/h
105 km/h
90 km/h
75 km/h
60 km/h
50 km/h
40 km/h
30 km/h
20 km/h
10 km/h
0 km/h
2600 J/kg
2400 J/kg
2200 J/kg
2000 J/kg
1800 J/kg
1600 J/kg
1400 J/kg
1200 J/kg
1000 J/kg
800 J/kg
600 J/kg
400 J/kg
200 J/kg
70 dBZ
65 dBZ
60 dBZ
55 dBZ
50 dBZ
45 dBZ
40 dBZ
35 dBZ
30 dBZ
25 dBZ
20 dBZ
15 dBZ
10 dBZ
5 dBZ
-1 K
-2 K
-3 K
-4 K
-5 K
-6 K
-7 K
-8 K
-9 K
950 m²/s²
900 m²/s²
850 m²/s²
800 m²/s²
750 m²/s²
700 m²/s²
650 m²/s²
600 m²/s²
550 m²/s²
500 m²/s²
450 m²/s²
400 m²/s²
350 m²/s²
300 m²/s²
250 m²/s²
200 m²/s²
150 m²/s²
100 m²/s²
46 m/s
44 m/s
42 m/s
40 m/s
38 m/s
36 m/s
34 m/s
32 m/s
30 m/s
28 m/s
26 m/s
24 m/s
22 m/s
20 m/s
16 m/s
12 m/s
8 m/s
4 m/s
30 m/s
28 m/s
26 m/s
24 m/s
22 m/s
20 m/s
18 m/s
16 m/s
14 m/s
12 m/s
10 m/s
8 m/s
6 m/s
4 m/s
2 m/s
3.0
2.8
2.6
2.4
2.2
2.0
1.8
1.6
1.4
1.2
1.0
0.8
0.6
0.4
0.2
15
14
13
12
11
10
9
8
7
6
5
4
3
2
1
90%
80%
70%
60%
50%
40%
30%
20%
10%
42
40
38
36
34
32
30
28
26
24
22
20
18
16
14
12
90+ cm
80-90 cm
70-80 cm
60-70 cm
50-60 cm
40-50 cm
30-40 cm
20-30 cm
10-20 cm
1-10 cm
Sneeuwval
Natte sneeuw
Regen
>120 mm
115 mm
110 mm
105 mm
100 mm
95 mm
90 mm
85 mm
80 mm
75 mm
70 mm
65 mm
60 mm
55 mm
50 mm
45 mm
45 mm
40 mm
35 mm
30 mm
25 mm
20 mm
15 mm
10 mm
5 mm
0.1 mm
960 hPa
880 hPa
800 hPa
720 hPa
640 hPa
560 hPa
584 gpdm
568 gpdm
552 gpdm
536 gpdm
520 gpdm
504 gpdm
488 gpdm
Extreem zwaar Noodweer Kans op onweer
15% 15% 5% 50% 15%

Dag




Kaart






35°
30°
25°
20°
15°
10°
-5°
-10°
-15°
-20°
-25°
-30°
-35°
120> km/h
105 km/h
90 km/h
75 km/h
60 km/h
50 km/h
40 km/h
30 km/h
20 km/h
10 km/h
0 km/h
Extreem zwaar Noodweer Kans op onweer
15% 15% 5% 50% 15%
>120 mm
115 mm
110 mm
105 mm
100 mm
95 mm
90 mm
85 mm
80 mm
75 mm
70 mm
65 mm
60 mm
55 mm
50 mm
45 mm
45 mm
40 mm
35 mm
30 mm
25 mm
20 mm
15 mm
10 mm
5 mm
0.1 mm
Onweer risico kaarten - De groene en gele kleur geeft de kans op onweer aan binnen 40 km van een punt. Oranje, rood en violet hebben hetzelfde niveau zoals je het ziet op estofex.org waaronder ook de kans op hagel en supercells.

dBZ - dBZ staat voor decibel ten opzichte van Z.

Cape - Convective available potential energy (CAPE), is de totale hoeveelheid energie die een luchtpakketje nodig heeft om zover mogelijk te stijgen in de atmosfeer.

K Index - K-Index wordt berekend door de Vertical Totals (VT) en het verschil tussen de 850 hPa temperatuur en de 700 hPa dauwpuntsdepressie (Tdd 700) bij elkaar op te tellen.

TT Index - Convectie index wordt gebruikt voor het voorspellen van zware buien of onweer.

WRF - The Weather Research and Forecasting (WRF) is een volgende generatie mesoscale numeriek weersvoorspelling systeem ontworpen om zowel de operationele planning als het atmosferisch onderzoek te dienen. WRF is a cooperatie tussen het National Center for Atmospheric Research (NCAR), National Centers for Environmental Prediction (NCEP), Forecast Systems Laboratory (FSL), Air Force Weather Agency (AFWA), Naval Research Laboratory, University of Oklahoma, en de Federal Aviation Administration (FAA). Deze software draait op onze server.

WRFDA - Een meer geavanceerde versie van WRF

Arome - Het 2.5 km Arome model. Verzorgd door het Noors Meteorologisch Instituut.

MET Norway - De proff-default 4km meteorological data is een beste keus selectie van meteorologische modellen gebruikt door met.no die zijn ge´nterpoleerd tot een gemeenschappelijke dataset. Verzorgd door het Noorse Meteorologisch Instituut.

SMHI - Het Hirlam model verzorgd door het Zweeds meteorologisch instituut.

FMI - Het Hirlam model verzorgd door het Fins meteorologisch instituut. Dekking alleen Finland.

GFS - Het Global Forecast Systeem (GFS) is een wereldwijd numerieke weersvoorspelling computermodel, gerund door NOAA.

GEM-GDPS - Het GEM-GDPS is a wereldwijd numeriek weersvoorspelling computermodel verzorgd door het Canadees Meteorologisch Centrum.

Credits/Info: Dank aan Stefan Gofferje van sääkeskus.fi voor enkele formules van GrADS. Info: Wikipedia.

Betrouwbaarheid van de verwachting

NB! 2015-03-29: Rebuilding the accuracy-test!

EWNACC
Day 1 Good forecasts

Dag 1 Tmax

Dag 2 Tmax

Geladen verwachtingen TOP 50

Totaal geladen verwachtingen:
Plaats Latitude Longitude Verwachtingen Plaats Latitude Longitude Verwachtingen